Weather History for Savannah Hunter, GA

Change the Weather History Date:

Thursday, November 7, 2013

  Actual Average Record
Temperature  
Mean Temperature 68 °F -  
Max Temperature 78 °F 70 °F 84 °F (2003)
Min Temperature 58 °F 49 °F 36 °F (2007)
Cooling Degree Days 3    
Growing Degree Days 18 (Base 50)    
Moisture  
Dew Point 61 °F    
Average Humidity 86    
Maximum Humidity 100    
Minimum Humidity 58    
Precipitation  
Precipitation 0.00 in - - ()
Sea Level Pressure  
Sea Level Pressure 30.03 in    
Wind  
Wind Speed 3 mph (WNW)    
Max Wind Speed 15 mph    
Max Gust Speed -    
Visibility 9 miles    
Events      
Averages and records for this station are not official NWS values.
T = Trace of Precipitation, MM = Missing Value Source: NWS Daily Summary

Daily Weather History Graph

Daily Weather History Graph

Search for Another Location

Airport:

Trip Planner

Search our weather history database for the weather conditions in past years. The results will help you decide how hot, cold, wet, or windy it might be!

Date:

Astronomy

Nov. 07, 2013 Rise Set
Actual Time 6:46 AM EST 5:29 PM EST
Civil Twilight 6:20 AM EST 5:55 PM EST
Nautical Twilight 5:51 AM EST 6:24 PM EST
Astronomical Twilight 5:23 AM EST 6:53 PM EST
Moon 10:50 AM EST (11/7) 9:41 PM EST (11/7)
Length of Visible Light 11h 34m
Length of Day
10h 43m
Waxing Crescent, 22% of the Moon is Illuminated
Nov 7
Waxing Crescent
Nov 10
First Quarter
Nov 17
Full
Nov 25
Last Quarter
Dec 2
New

Hourly Weather History & Observations

Time (EST) Temp. Dew Point Humidity Pressure Visibility Wind Dir Wind Speed Gust Speed Precip Events Conditions
12:28 AM 62.6 °F 60.8 °F 94% 30.07 in 8.0 mi Calm Calm - N/A   Clear
12:58 AM 62.6 °F 60.8 °F 94% 30.07 in 10.0 mi Calm Calm - N/A   Clear
1:25 AM 62.6 °F 60.8 °F 94% 30.06 in 9.0 mi Calm Calm - N/A   Clear
1:30 AM 62.6 °F 60.8 °F 94% 30.06 in 10.0 mi Calm Calm - N/A   Clear
1:45 AM 60.8 °F 60.8 °F 100% 30.05 in 8.0 mi Calm Calm - N/A   Clear
1:50 AM 60.8 °F 60.8 °F 100% 30.05 in 1.8 mi Calm Calm - N/A   Clear
1:52 AM 60.8 °F 60.8 °F 100% 30.05 in 10.0 mi West 1.2 mph - N/A   Clear
1:58 AM 60.8 °F 60.8 °F 100% 30.06 in 10.0 mi West 1.2 mph - N/A   Clear
2:58 AM 60.8 °F 60.8 °F 100% 30.05 in 10.0 mi Calm Calm - N/A   Scattered Clouds
3:58 AM 60.8 °F 60.8 °F 100% 30.04 in 10.0 mi Calm Calm - N/A   Scattered Clouds
4:23 AM 60.8 °F 60.8 °F 100% 30.03 in 5.0 mi West 1.2 mph - N/A   Clear
4:58 AM 59.0 °F 59.0 °F 100% 30.04 in 10.0 mi WSW 2.3 mph - N/A   Scattered Clouds
5:58 AM 59.0 °F 59.0 °F 100% 30.04 in 10.0 mi WSW 2.3 mph - N/A   Scattered Clouds
6:52 AM 59.0 °F 59.0 °F 100% 30.03 in 10.0 mi WSW 2.3 mph - N/A   Partly Cloudy
6:58 AM 58.6 °F 58.6 °F 100% 30.04 in 10.0 mi West 3.5 mph - N/A   Partly Cloudy
7:58 AM 60.3 °F 60.3 °F 100% 30.05 in 10.0 mi Calm Calm - N/A   Mostly Cloudy
8:58 AM 62.4 °F 62.1 °F 99% 30.06 in 10.0 mi Calm Calm - N/A   Partly Cloudy
9:58 AM 66.4 °F 64.0 °F 92% 30.06 in 10.0 mi NW 3.5 mph - N/A   Partly Cloudy
10:58 AM 70.7 °F 63.9 °F 79% 30.05 in 10.0 mi NW 5.8 mph - N/A   Scattered Clouds
11:58 AM 77.0 °F 63.0 °F 62% 30.02 in 10.0 mi WNW 6.9 mph - N/A   Partly Cloudy
12:58 PM 78.3 °F 62.2 °F 58% 30.00 in 10.0 mi West 6.9 mph - N/A   Partly Cloudy
1:58 PM 77.9 °F 62.8 °F 60% 29.98 in 10.0 mi NW 12.7 mph - N/A   Mostly Cloudy
2:58 PM 76.8 °F 64.0 °F 65% 29.98 in 10.0 mi WNW 9.2 mph - N/A   Mostly Cloudy
3:58 PM 77.4 °F 64.2 °F 64% 29.96 in 10.0 mi NW 10.4 mph - N/A   Scattered Clouds
4:58 PM 74.7 °F 64.4 °F 70% 29.97 in 10.0 mi WNW 9.2 mph - N/A   Overcast
5:58 PM 72.5 °F 63.7 °F 74% 29.99 in 10.0 mi WNW 8.1 mph - N/A   Overcast
6:58 PM 69.3 °F 63.0 °F 80% 30.01 in 10.0 mi WNW 6.9 mph - N/A   Mostly Cloudy
7:58 PM 67.3 °F 62.1 °F 83% 30.02 in 10.0 mi WNW 6.9 mph - N/A   Clear
8:58 PM 64.0 °F 61.2 °F 90% 30.03 in 10.0 mi West 5.8 mph - N/A   Clear
9:58 PM 64.6 °F 56.5 °F 75% 30.03 in 10.0 mi NW 15.0 mph - N/A   Clear
10:58 PM 62.1 °F 52.2 °F 70% 30.05 in 10.0 mi NW 11.5 mph - N/A   Clear
11:58 PM 60.3 °F 48.2 °F 64% 30.05 in 10.0 mi NW 11.5 mph - N/A   Clear